DW6267 Weather Reports


Display with metric or nautical units.
time (UTC)temp
F
wind
direction
speed
MPH
gust
MPH
rain 1hr
in
rain 24hr
in
rain mn
in
humidity
%
barometer
mb
20260506230358 68 304 3.0 0.0 0.00 0.00 0.00 39 1012.9
20260506220348 69 244 4.0 0.0 0.00 0.00 0.00 34 1012.8
20260506210341 69 326 4.0 0.0 0.00 0.00 0.00 38 1012.5
20260506200345 70 321 4.0 0.0 0.00 0.00 0.00 37 1012.5
20260506190346 69 311 4.0 0.0 0.00 0.00 0.00 45 1012.5
20260506180346 68 256 4.0 0.0 0.00 0.00 0.00 47 1012.6
20260506170348 68 300 4.0 0.0 0.00 0.00 0.00 49 1012.3
20260506160349 66 284 5.0 0.0 0.00 0.00 0.00 52 1013.6
20260506150331 60 17 2.0 0.0 0.00 0.00 0.00 61 1013.1
20260506140351 42 347 0.0 0.0 0.00 0.00 0.00 92 1013.4
20260506130340 41 346 0.0 0.0 0.00 0.00 0.00 93 1013.5
20260506120347 42 346 0.0 0.0 0.00 0.00 0.00 92 1012.5
20260506110346 43 17 0.0 0.0 0.00 0.00 0.00 90 1012.8
20260506100346 44 17 0.0 0.0 0.00 0.00 0.00 91 1012.5
20260506090343 46 17 0.0 0.0 0.00 0.00 0.00 85 1012.3
20260506080404 45 250 0.0 0.0 0.00 0.00 0.00 84 1012.3
20260506070337 46 250 0.0 0.0 0.00 0.00 0.00 85 1012.0
20260506060343 47 250 0.0 0.0 0.00 0.00 0.00 82 1012.0
20260506050344 50 250 0.0 0.0 0.00 0.00 0.00 79 1010.9
20260506040347 51 250 0.0 0.0 0.00 0.00 0.00 76 1010.4
20260506030350 54 250 0.0 0.0 0.00 0.00 0.00 72 1010.1
20260506020337 59 250 0.0 0.0 0.00 0.00 0.00 63 1009.9
20260506010334 69 283 0.0 0.0 0.00 0.00 0.00 42 1009.6
20260506000349 75 332 0.0 0.0 0.00 0.00 0.00 32 1009.2